Location: Attenhausen
(48.2665°N, 10.4075°E)
Time: 11:25:00
(UTC+00:00)

Daily predictions for brighter satellites

Satellite Brightness Start Highest point End
(mag) Time Altitude Azimuth Time Altitude Azimuth Time Altitude Azimuth
In-Cosmos 22 Rocket 4.2 18:38:34 10° N 18:44:01 73° ENE 18:49:34 10° SSE
Cosmos 1025 Rocket 3.8 18:40:21 10° NNW 18:44:40 58° W 18:48:58 10° S
PAYLOAD B 4.4 18:39:24 10° SSE 18:44:58 83° WSW 18:50:36 10° NNW
Cosmos 2181 Rocket 4.0 18:39:55 10° S 18:46:07 79° E 18:52:26 10° N
Okean 2 Rocket 4.4 18:43:36 10° SE 18:47:00 21° E 18:50:25 10° NE
Cosmos 1992 Rocket 4.0 18:43:35 10° SSW 18:48:46 70° ESE 18:53:59 10° NNE
MOS 1-B 4.4 18:43:09 10° SSE 18:48:55 71° ENE 18:54:42 10° NNW
CZ-4C R/B 4.0 18:43:18 10° NW 18:49:04 32° NNE 18:56:00 10° E
SPOT 5 4.3 18:47:42 10° ESE 18:51:56 25° ENE 18:56:07 10° N
Cosmos 2297 Rocket 3.4 18:48:47 10° NNW 18:53:41 29° NE 18:58:31 10° ESE
Cosmos 2369 Rocket 3.5 18:51:56 10° SW 18:57:22 46° NW 19:02:48 10° NNE
Cosmos 1503 Rocket 4.5 18:52:42 10° NNW 18:57:53 47° ENE 19:03:03 10° SE
Meteor 1-11 4.3 18:54:49 10° N 19:00:31 83° ENE 19:06:16 10° SSE
BlueWalker 3 2.9 18:57:53 10° SSW 19:01:05 26° SE 19:04:19 10° E
Terra 3.6 19:01:44 10° E 19:04:41 17° ENE 19:07:39 10° NNE
ATLAS 5 CENTAUR R/B 0.9 19:02:06 10° SW 19:05:26 89° NW 19:09:10 10° NE
PSLV R/B 3.6 19:04:02 10° SSE 19:07:44 83° ENE 19:11:33 10° NNW
Cosmos 2098 Rocket 3.0 19:03:14 10° S 19:08:01 86° E 19:11:54 10° N
CARTOSAT-1 3.5 19:04:12 10° SSE 19:08:27 74° ENE 19:12:44 10° N
Cosmos 1455 4.1 19:07:09 10° SW 19:10:22 32° WNW 19:13:37 10° N
Sich 1 Rocket 4.2 19:06:24 10° SSE 19:10:25 35° E 19:14:28 10° NNE
Okean 1 Rocket 4.3 19:07:01 10° SE 19:10:30 23° E 19:14:01 10° NE
Okean-O 2.9 19:11:14 10° SE 19:15:29 50° ENE 19:19:47 10° N
Cosmos 1932 4.5 19:09:30 10° NW 19:15:47 82° NE 19:21:31 12° SE
Cosmos 1975 Rocket 3.9 19:11:41 10° NNW 19:15:53 50° W 19:20:03 10° S
CZ-4B R/B 3.8 19:12:04 10° S 19:17:38 62° WSW 19:23:10 10° NNW
Ariane Rocket 4.4 19:16:22 12° ESE 19:19:36 22° ENE 19:23:26 10° N
Cosmos 2263 Rocket 4.3 19:16:50 10° N 19:19:44 14° NNE 19:22:36 10° ENE
CZ-4C R/B 3.5 19:18:22 10° NNE 19:21:33 36° E 19:24:41 10° SSE
Nadezhda 3 Rocket 3.9 19:16:12 10° S 19:22:18 70° E 19:28:28 10° NNE
Cosmos 1821 Rocket 4.2 19:17:17 10° NNW 19:23:27 74° W 19:29:30 10° S
USA 186 3.2 19:21:26 10° SSW 19:24:15 35° W 19:27:03 10° NNW
SL-27 R/B 3.7 19:21:43 10° NW 19:24:20 30° WSW 19:26:54 10° S
Genesis I 3.2 19:20:55 10° NNW 19:24:30 57° NE 19:26:55 19° ESE
Cosmos 44 4.4 19:20:35 10° S 19:25:03 27° ESE 19:29:30 10° ENE
BREEZE-M R/B 1.6 19:23:38 10° WNW 19:26:14 80° N 19:27:39 22° E
USA 267 3.5 19:19:54 10° NE 19:26:27 74° NNW 19:32:58 10° WSW
Okean O Rocket 2.1 19:26:00 10° S 19:30:18 62° WSW 19:34:40 10° NNW
Aureole 1 Rocket 4.5 19:32:26 10° NNE 19:33:42 12° NE 19:34:29 11° ENE
Cosmos 1486 Rocket 4.5 19:30:14 10° NNW 19:35:23 60° WSW 19:40:28 10° S
CZ-4 R/B 3.7 19:32:31 10° SW 19:35:35 22° W 19:38:39 10° NW
Cosmos 1536 Rocket 3.5 19:37:36 10° N 19:42:03 84° E 19:45:49 14° S
SJ 16-02 4.2 19:41:09 10° WNW 19:43:00 13° W 19:44:50 10° WSW
Resurs 01 Rocket 2.7 19:40:56 10° S 19:45:08 43° W 19:49:23 10° NNW
IRS-1C Rocket 4.1 19:42:38 18° SSE 19:46:35 66° ENE 19:51:51 10° N
MOS 1 4.3 19:43:34 13° SSE 19:48:42 87° ENE 19:54:27 10° NNW
CENTAUR R/B 4.0 19:43:05 10° NW 19:50:22 41° NNE 19:57:39 14° E
NOSS 3-1 (A) 3.2 19:46:58 10° SW 19:51:58 81° NW 19:58:04 10° NE
ERS-1 Rocket 3.3 19:51:26 24° SE 19:54:13 50° ENE 19:59:04 10° N
SPOT 3 Rocket 4.2 19:55:09 24° ESE 19:57:39 40° ENE 20:02:28 10° N
Tiangong 0.0 19:56:20 10° SW 19:57:17 15° SSW 19:57:17 15° SSW
USA 229 DEB 3.6 19:55:00 10° SSW 20:00:51 51° ESE 20:07:17 10° NE
Cosmos 1934 Rocket 4.0 19:54:45 10° N 20:00:57 86° W 20:06:25 14° S
USA 229 3.6 19:55:06 10° SSW 20:00:57 50° ESE 20:07:23 10° NE
Cosmos 1339 Rocket 4.4 19:56:28 10° S 20:02:36 86° E 20:08:43 10° N
Cosmos 2151 Rocket 3.9 19:58:13 10° SSW 20:02:36 66° WNW 20:07:02 10° N
USA 234 4.0 19:58:35 16° SSE 20:03:25 43° SW 20:09:37 10° WNW
USA 281 3.6 19:59:01 13° S 20:04:53 61° WSW 20:11:25 10° NNW
ATLAS CENTAUR R/B 2.5 20:05:26 10° NNW 20:08:44 28° NE 20:09:58 23° ENE
Cosmos 2227 Rocket 2.6 20:04:11 10° NNW 20:09:44 51° NE 20:12:21 29° ESE
Cosmos 1980 Rocket 3.9 20:13:32 16° E 20:13:32 16° E 20:15:47 10° ENE
Iridium 2 3.9 20:10:20 10° NNW 20:13:11 46° W 20:14:17 29° SSW
Cosmos 1892 Rocket 3.6 20:12:45 10° N 20:17:02 56° ENE 20:18:10 42° SE
SL-4 R/B 1.6 20:13:39 10° WNW 20:17:14 72° NNE 20:17:57 52° E
Cosmos 371 Rocket 4.3 20:13:22 10° NW 20:17:51 41° WSW 20:21:07 17° SSW
Landsat 4 3.5 20:17:01 43° S 20:18:03 75° WSW 20:21:35 10° NNW
MetOp-B 4.4 20:15:38 20° S 20:19:21 68° WSW 20:24:43 10° NNW
Cosmos 1697 Rocket 3.1 20:18:57 33° SE 20:20:37 40° ESE 20:25:53 10° NE
Cosmos 2360 4.3 20:17:18 16° S 20:21:43 55° ESE 20:27:16 10° NE
Okean 2 Rocket 4.3 20:20:27 10° SSW 20:24:44 43° WNW 20:29:03 10° N
COSMOS 2455 2.8 20:19:11 10° NW 20:25:15 89° NE 20:27:59 35° SSE
ATLAS 3B R/B 3.5 20:19:03 10° WSW 20:26:07 58° NW 20:33:43 10° NE
SPOT 5 3.6 20:26:04 21° S 20:29:35 58° W 20:34:46 10° NNW
MetOp-A 4.0 20:30:40 37° ENE 20:30:45 37° ENE 20:34:17 10° N
NOSS 8 (H) 4.3 20:28:08 10° NW 20:31:17 82° NE 20:31:30 75° ESE
NOSS 8 (E) 4.4 20:28:35 10° NW 20:31:44 72° SW 20:31:59 68° SSW
Cosmos 405 Rocket 2.5 20:33:26 69° ESE 20:33:30 69° E 20:37:13 10° NNE
Cosmos 1898 Rocket 4.0 20:29:37 10° NNW 20:34:42 47° ENE 20:36:04 38° ESE
Cosmos 2297 Rocket 2.5 20:32:32 10° NW 20:38:06 60° WSW 20:40:35 32° S
Spot 2 Rocket 3.4 20:36:25 41° SSE 20:38:15 89° WSW 20:43:20 10° NNW
CZ-4C R/B 3.0 20:31:29 10° NW 20:38:32 79° NE 20:42:37 34° SE
BlueWalker 3 2.0 20:35:15 10° WSW 20:39:04 74° NNW 20:40:37 34° NE
USA 81 4.2 20:38:46 45° SE 20:39:49 52° E 20:44:56 10° NNE
ARIANE 5 R/B 4.3 20:39:49 20° ENE 20:40:11 20° ENE 20:43:27 10° NNE
Terra 1.8 20:40:08 42° S 20:41:43 75° WSW 20:46:28 10° NNW
Cosmos 1656 4.1 20:38:20 10° SW 20:43:51 62° WNW 20:49:20 10° NNE
Cosmos 1455 Rocket 2.9 20:46:46 56° S 20:47:41 90° E 20:52:06 10° N
Okean 1 Rocket 4.3 20:44:00 10° SW 20:48:06 40° WNW 20:52:20 10° N
Spot 1 4.0 20:43:54 10° NNE 20:48:33 70° ESE 20:49:02 64° SE
USA 245 4.4 20:46:54 31° SSW 20:49:07 54° WSW 20:53:26 10° NNW
ATLAS 5 CENTAUR R/B 4.2 20:47:34 10° WNW 20:49:59 17° NNW 20:52:41 10° NNE
Cosmos 332 Rocket 4.3 20:45:43 10° NNW 20:50:28 54° WSW 20:51:53 39° SSW
Cosmos 1459 Rocket 4.2 20:44:45 10° N 20:50:38 50° ENE 20:52:04 42° ESE
Cosmos 2219 3.3 20:47:33 10° NNW 20:53:11 62° ENE 20:54:33 48° ESE
Ariane Rocket 3.3 20:56:30 40° SSW 20:58:08 60° WSW 21:03:09 10° NNW
Cosmos 1437 Rocket 3.2 20:56:17 10° NNW 21:00:08 55° W 21:00:22 54° WSW
Cosmos 1763 Rocket 3.5 20:57:45 25° SSW 21:00:41 74° WNW 21:05:52 10° NNE
Cosmos 2263 Rocket 2.5 20:59:31 10° NNW 21:05:02 52° NE 21:06:06 46° E
Cosmos 44 4.0 21:00:36 10° SW 21:05:57 61° NW 21:11:13 10° NNE
USA 267 4.3 21:02:52 10° ENE 21:09:00 44° N 21:15:08 10° WNW
ARGOS Delta rocket 4.3 21:08:36 49° SSW 21:10:00 70° W 21:15:29 10° NNW
Cosmos 2082 3.9 21:05:56 10° NNW 21:11:32 57° ENE 21:12:29 51° E
Cosmos 2173 Rocket 3.9 21:09:08 10° N 21:15:33 79° E 21:17:01 56° SSE
NOSS 3-2 (A) 4.2 21:09:22 10° NW 21:16:31 63° NE 21:19:58 37° ESE
Aureole 1 Rocket 4.2 21:14:17 10° NW 21:15:56 26° WNW 21:15:56 26° WNW
Meteor 2-3 Rocket 3.7 21:13:22 10° N 21:19:02 66° ENE 21:19:41 61° ESE
Cosmos 540 Rocket 3.6 21:18:45 42° SW 21:20:26 69° WNW 21:25:34 10° NNE
Cosmos 1606 4.4 21:23:39 25° NNE 21:23:39 25° NNE 21:25:22 10° NNE
MOS 1 Rocket 3.5 21:25:22 52° W 21:25:22 52° W 21:29:39 10° NNW
Cosmos 2058 3.6 21:22:52 10° NNW 21:26:27 46° WNW 21:26:27 46° WNW
Meteor 2-15 4.3 21:22:54 10° N 21:29:04 80° E 21:29:58 66° SSE
Cosmos 1626 Rocket 3.7 21:25:03 10° NNW 21:29:06 70° NW 21:29:06 70° NW
Cosmos 372 Rocket 3.9 21:26:41 10° NNW 21:31:56 76° WSW 21:32:09 75° SW
Meteor 2-15 Rocket 4.4 21:26:15 10° N 21:32:22 65° ENE 21:33:02 61° ESE
Cosmos 468 Rocket 4.4 21:31:31 38° SW 21:33:20 58° WNW 21:38:31 10° NNE
Cosmos 1864 Rocket 4.3 21:28:47 10° N 21:34:58 74° E 21:35:41 66° SE
Cosmos 1802 Rocket 3.9 21:31:43 10° N 21:38:02 86° E 21:38:59 67° SSE
SL-16 R/B 4.1 21:41:08 17° ENE 21:41:08 17° ENE 21:43:00 10° NE
CENTAUR R/B 3.2 21:33:44 10° NW 21:41:59 85° SW 21:44:48 51° SSE
Cosmos 841 Rocket 3.4 21:43:35 77° NE 21:43:35 77° NE 21:48:22 10° NNE
Cosmos 2016 Rocket 3.8 21:39:11 10° N 21:45:19 82° E 21:45:55 73° SE
ATLAS CENTAUR R/B 3.0 21:43:01 10° NW 21:45:04 26° WNW 21:45:04 26° WNW
Cosmos 1544 Rocket 4.2 21:49:27 51° NW 21:49:27 51° NW 21:53:13 10° N
Cosmos 1844 Rocket 4.0 21:44:28 10° NNW 21:49:22 30° NE 21:50:30 27° ENE
H-2A R/B 3.8 21:54:16 33° N 21:54:16 33° N 21:56:31 10° N
Cosmos 2100 Rocket 4.4 21:46:45 10° NNW 21:52:56 55° W 21:54:16 47° SW
Cosmos 2227 Rocket 3.4 21:48:40 10° NW 21:53:31 30° WSW 21:54:10 29° WSW
Cosmos 1980 Rocket 2.1 21:55:14 79° WSW 21:55:30 82° WNW 22:01:12 10° NNE
Cosmos 967 Rocket 4.3 21:53:41 10° NW 22:00:12 88° NE 22:00:44 77° SE
Cosmos 1937 Rocket 4.2 21:58:56 10° NNW 22:03:46 46° W 22:03:46 46° W
Cosmos 1697 Rocket 3.9 22:00:32 16° WSW 22:04:36 39° NW 22:09:55 10° NNE
Okean 1-7 Rocket 4.5 22:00:29 10° NNW 22:04:09 47° WNW 22:04:09 47° WNW
Cosmos 2123 Rocket 4.0 22:05:46 64° SW 22:06:37 75° W 22:12:59 10° N
Meteor 1-27 4.2 22:10:41 77° NNE 22:10:41 77° NNE 22:15:52 10° NNE
CZ-2C R/B 4.2 22:06:45 10° N 22:10:47 60° NNW 22:10:47 60° NNW
Cosmos 2228 4.3 22:14:50 37° NW 22:14:50 37° NW 22:17:57 10° N
ARIANE 5 R/B 3.6 22:17:17 43° NW 22:17:17 43° NW 22:20:39 10° NNW
BlueWalker 3 4.5 22:14:04 10° WNW 22:15:06 17° WNW 22:15:06 17° WNW
CZ-4C R/B 4.0 22:20:21 10° NW 22:26:50 32° WSW 22:27:43 32° SW
Cosmos 2227 4.2 22:22:24 10° NNW 22:27:45 77° N 22:27:45 77° N
Cosmos 2369 4.0 22:27:49 60° WNW 22:28:12 61° WNW 22:33:49 10° NNE
Lacrosse 4 Rocket 3.6 22:33:41 20° NNE 22:33:41 20° NNE 22:35:00 10° NNE
NOSS 3-2 (C) 4.0 22:25:23 10° NW 22:32:46 83° NE 22:34:32 60° SE
H-2A R/B 4.2 22:29:16 10° NNE 22:30:48 19° NE 22:30:48 19° NE
ALOS 2 3.8 22:35:59 41° N 22:35:59 41° N 22:38:56 10° N
Cosmos 2233 Rocket 4.0 22:29:08 10° NNW 22:35:15 66° W 22:35:19 65° W
Cosmos 2061 Rocket 4.4 22:35:26 10° NNW 22:41:41 54° W 22:42:00 53° WSW
Cosmos 1447 Rocket 4.4 22:42:34 85° NNE 22:42:34 85° NNE 22:48:35 10° N
Cosmos 1814 Rocket 4.5 22:45:04 57° N 22:45:04 57° N 22:49:14 10° NNE
Cosmos 1464 Rocket 4.4 22:38:34 10° N 22:44:49 54° ENE 22:44:59 54° E
Cosmos 2263 Rocket 3.6 22:43:56 10° NW 22:47:47 27° W 22:47:47 27° W
Cosmos 2360 Rocket 3.5 22:51:06 29° ENE 22:51:06 29° ENE 22:54:28 10° NE
USA 267 4.2 22:45:07 10° E 22:51:16 45° NNE 22:57:27 10° WNW
SL-19 R/B 4.4 22:46:20 10° NNE 22:51:47 78° NW 22:51:47 78° NW
Cosmos 909 Rocket 4.4 22:55:34 71° S 22:56:22 78° ESE 23:05:33 10° NE
Cosmos 1891 Rocket 4.4 22:53:16 10° N 22:59:17 85° N 22:59:17 85° N
Cosmos 1513 Rocket 4.4 22:53:47 10° N 22:59:38 81° NNE 22:59:38 81° NNE
Cosmos 2333 Rocket 3.4 23:03:47 31° ENE 23:03:47 31° ENE 23:07:22 10° NE
Cosmos 2322 Rocket 2.9 23:03:59 44° ENE 23:03:59 44° ENE 23:08:05 10° NE
Lacrosse 5 3.7 23:05:57 23° ENE 23:05:57 23° ENE 23:07:52 10° ENE
Cosmos 2219 Rocket 3.9 23:05:42 21° ENE 23:05:42 21° ENE 23:08:31 10° NE
Cosmos 2034 Rocket 4.3 23:00:54 10° N 23:06:57 53° ENE 23:07:00 53° ENE
Cosmos 1809 Rocket 4.4 23:21:05 78° NW 23:21:05 78° NW 23:27:05 10° N
SL-16 R/B 2.4 23:22:57 66° NNW 23:22:57 66° NNW 23:28:07 10° NNE
Cosmos 1844 4.1 23:18:43 10° NNW 23:23:28 59° NW 23:23:28 59° NW
CENTAUR R/B 4.4 23:25:20 10° WNW 23:31:56 26° WSW 23:31:56 26° WSW
USA 238 DEB 3.8 23:25:09 10° NW 23:32:30 79° SW 23:32:58 76° SSW
USA 238 3.8 23:25:15 10° NW 23:32:36 80° SW 23:33:06 76° S
Cosmos 1844 Rocket 3.4 23:28:05 10° NW 23:32:08 43° WNW 23:32:08 43° WNW
Cosmos 1980 Rocket 4.4 23:36:55 12° W 23:40:25 20° NW 23:44:27 10° N
Meteor 2-2 Rocket 4.4 23:48:58 75° NE 23:48:58 75° NE 23:54:31 10° NNE
Timation 2 Rocket 4.2 23:42:26 10° NNW 23:48:19 63° W 23:48:19 63° W
Cosmos 1816 Rocket 4.4 23:51:35 79° NW 23:51:35 79° NW 23:57:33 10° N
